{"data":{"norad_id":22824,"intl_designator":"1993-061B","name":"STELLA","alt_names":[],"object_type":"PAYLOAD","status":"ACTIVE","operator":null,"country":"FR","launch_date":"1993-09-26","launch_site_code":"FRGUI","launch_vehicle":null,"mission":null,"orbit_class":"UNKNOWN","rcs_meters":0.17,"size_class":null,"mass_kg":null,"dimensions":null,"purposes":["science"],"wikipedia_slug":null,"has_3d_model":false,"image_url":null,"decayed_at":null,"tle_current":{"epoch":"2026-05-25T04:58:37.225056Z","epoch_age_seconds":67647,"freshness":"FRESH","line1":"1 22824U 93061B   26145.20737529 -.00000032  00000+0  54277-5 0  9995","line2":"2 22824  98.7735 209.3752 0005488 310.5093 142.3892 14.27469763701492","mean_motion":14.27469763,"eccentricity":0.0005488,"inclination_deg":98.7735,"raan_deg":209.3752,"arg_perigee_deg":310.5093,"mean_anomaly_deg":142.3892,"bstar":5.4277e-6,"rev_number":70149,"period_min":100.87779351443,"perigee_km":796.26140391494,"apogee_km":804.14034756736,"semimajor_km":7178.3378757412,"source":"CELESTRAK","updated_at":"2026-05-25T13:38:24.773037Z"}}}